Hourly Weather Allmend

Today, 3 March, Wednesday

Time Temperature Precipitation Wind Pressure Humidity
00:00 +4°C° 0 mm 1 mps 699 mmHg 48%
01:00 +4°C° 0 mm 1 mps 699 mmHg 47%
02:00 +4°C° 0 mm 1 mps 699 mmHg 47%
03:00 +4°C° 0 mm 1 mps 698 mmHg 47%
04:00 +4°C° 0 mm 1 mps 698 mmHg 48%
05:00 +4°C° 0 mm 1 mps 698 mmHg 48%
06:00 +3°C° 0 mm 1 mps 698 mmHg 49%
07:00 +3°C° 0 mm 1 mps 698 mmHg 49%
08:00 +5°C° 0 mm 1 mps 698 mmHg 51%
09:00 +8°C° 0 mm 1 mps 699 mmHg 53%
10:00 +9°C° 0 mm 0 mps 699 mmHg 55%
11:00 +10°C° 0 mm 0 mps 699 mmHg 53%
12:00 +11°C° 0 mm 0 mps 699 mmHg 52%
13:00 +12°C° 0 mm 0 mps 699 mmHg 50%
14:00 +12°C° 0 mm 0 mps 698 mmHg 52%
15:00 +12°C° 0 mm 0 mps 698 mmHg 53%
16:00 +12°C° 0 mm 0 mps 697 mmHg 55%
17:00 +11°C° 0 mm 1 mps 697 mmHg 58%
18:00 +9°C° 0 mm 1 mps 697 mmHg 61%
19:00 +7°C° 0 mm 1 mps 696 mmHg 64%
20:00 +7°C° 0 mm 1 mps 696 mmHg 64%
21:00 +6°C° 0 mm 1 mps 696 mmHg 63%
22:00 +6°C° 0 mm 1 mps 696 mmHg 62%
23:00 +6°C° 0 mm 1 mps 696 mmHg 62%

Tomorrow, 4 March, Thursday

Time Temperature Precipitation Wind Pressure Humidity
00:00 +5°C° 0 mm 1 mps 695 mmHg 61%
01:00 +5°C° 0 mm 1 mps 695 mmHg 61%
02:00 +5°C° 0 mm 1 mps 695 mmHg 62%
03:00 +5°C° 0 mm 1 mps 694 mmHg 62%
04:00 +5°C° 0 mm 1 mps 694 mmHg 62%
05:00 +5°C° 0 mm 1 mps 694 mmHg 64%
06:00 +4°C° 0 mm 1 mps 693 mmHg 65%
07:00 +4°C° 0 mm 1 mps 693 mmHg 66%
08:00 +6°C° 0 mm 1 mps 693 mmHg 65%
09:00 +8°C° 0 mm 1 mps 693 mmHg 63%
10:00 +10°C° 0 mm 1 mps 693 mmHg 61%
11:00 +10°C° 0 mm 1 mps 693 mmHg 60%
12:00 +11°C° 0 mm 1 mps 692 mmHg 59%
13:00 +12°C° 0 mm 2 mps 692 mmHg 57%
14:00 +12°C° 0 mm 2 mps 692 mmHg 59%
15:00 +10°C° 0 mm 2 mps 691 mmHg 61%
16:00 +10°C° 0 mm 2 mps 690 mmHg 63%
17:00 +10°C° 0.3 mm 1 mps 690 mmHg 71%
18:00 +8°C° 0.3 mm 1 mps 690 mmHg 78%
19:00 +7°C° 0.3 mm 1 mps 690 mmHg 85%
20:00 +6°C° 1 mm 1 mps 690 mmHg 88%
21:00 +6°C° 1 mm 1 mps 690 mmHg 91%
22:00 +6°C° 1 mm 1 mps 690 mmHg 93%
23:00 +6°C° 1.1 mm 1 mps 690 mmHg 94%

Day after tomorrow, 5 March, Friday

Time Temperature Precipitation Wind Pressure Humidity
00:00 +6°C° 1.1 mm 1 mps 690 mmHg 94%
01:00 +6°C° 1.1 mm 1 mps 690 mmHg 95%
02:00 +6°C° 0.6 mm 1 mps 690 mmHg 95%
03:00 +5°C° 0.6 mm 1 mps 689 mmHg 95%
04:00 +4°C° 0.6 mm 0 mps 689 mmHg 95%
05:00 +4°C° 0.3 mm 0 mps 689 mmHg 95%
06:00 +4°C° 0.3 mm 0 mps 689 mmHg 95%
07:00 +3°C° 0.3 mm 0 mps 689 mmHg 96%
08:00 +5°C° 0.3 mm 1 mps 689 mmHg 94%
09:00 +5°C° 0.3 mm 1 mps 690 mmHg 93%
10:00 +6°C° 0.3 mm 1 mps 690 mmHg 91%
11:00 +6°C° 0.3 mm 1 mps 690 mmHg 91%
12:00 +6°C° 0.3 mm 1 mps 690 mmHg 90%
13:00 +5°C° 0.3 mm 2 mps 690 mmHg 90%
14:00 +5°C° 0.3 mm 2 mps 690 mmHg 91%
15:00 +4°C° 0.3 mm 2 mps 690 mmHg 92%
16:00 +4°C° 0.3 mm 2 mps 689 mmHg 94%
17:00 +3°C° 0.5 mm 2 mps 690 mmHg 95%
18:00 +2°C° 0.5 mm 2 mps 690 mmHg 96%
19:00 +2°C° 0.5 mm 2 mps 691 mmHg 97%
20:00 +1°C° 0.2 mm 2 mps 691 mmHg 97%
21:00 0°C° 0.2 mm 3 mps 692 mmHg 96%
22:00 0°C° 0.2 mm 3 mps 692 mmHg 96%
23:00 -1°C° 0.1 mm 3 mps 692 mmHg 95%

6 March, Saturday

Time Temperature Precipitation Wind Pressure Humidity
00:00 -1°C° 0.1 mm 2 mps 692 mmHg 94%
01:00 -2°C° 0.1 mm 2 mps 693 mmHg 93%
02:00 -2°C° 0 mm 2 mps 693 mmHg 94%
03:00 -3°C° 0 mm 2 mps 693 mmHg 94%
04:00 -3°C° 0 mm 2 mps 693 mmHg 94%
05:00 -4°C° 0 mm 2 mps 693 mmHg 93%
06:00 -2°C° 0 mm 1 mps 693 mmHg 91%
07:00 -2°C° 0 mm 1 mps 693 mmHg 90%
08:00 -1°C° 0 mm 1 mps 693 mmHg 88%
09:00 -2°C° 0 mm 2 mps 694 mmHg 85%
10:00 -1°C° 0 mm 2 mps 694 mmHg 83%
11:00 +1°C° 0 mm 2 mps 694 mmHg 81%
12:00 +2°C° 0 mm 2 mps 694 mmHg 80%
13:00 +2°C° 0 mm 2 mps 694 mmHg 79%
14:00 +3°C° 0 mm 2 mps 694 mmHg 77%
15:00 +3°C° 0 mm 2 mps 694 mmHg 76%
16:00 +5°C° 0 mm 1 mps 694 mmHg 75%
17:00 +3°C° 0 mm 1 mps 694 mmHg 79%
18:00 +2°C° 0 mm 1 mps 694 mmHg 83%
19:00 +1°C° 0 mm 1 mps 694 mmHg 86%
20:00 +1°C° 0 mm 1 mps 695 mmHg 85%
21:00 0°C° 0 mm 1 mps 695 mmHg 84%
22:00 -1°C° 0 mm 1 mps 695 mmHg 82%
23:00 -1°C° 0 mm 1 mps 695 mmHg 81%

7 March, Sunday

Time Temperature Precipitation Wind Pressure Humidity
00:00 -1°C° 0 mm 1 mps 695 mmHg 80%
01:00 -1°C° 0 mm 1 mps 695 mmHg 78%
02:00 -1°C° 0 mm 1 mps 694 mmHg 78%
03:00 -1°C° 0 mm 1 mps 694 mmHg 77%
04:00 -1°C° 0 mm 1 mps 694 mmHg 76%
05:00 -1°C° 0 mm 1 mps 694 mmHg 76%
06:00 -1°C° 0 mm 1 mps 694 mmHg 76%
07:00 -1°C° 0 mm 1 mps 694 mmHg 76%
08:00 +1°C° 0 mm 0 mps 694 mmHg 72%
09:00 +3°C° 0 mm 0 mps 694 mmHg 68%
10:00 +5°C° 0 mm 0 mps 694 mmHg 64%
11:00 +6°C° 0 mm 0 mps 694 mmHg 64%
12:00 +8°C° 0 mm 1 mps 693 mmHg 63%
13:00 +9°C° 0 mm 1 mps 693 mmHg 63%
14:00 +9°C° 0.1 mm 1 mps 693 mmHg 65%
15:00 +9°C° 0.1 mm 1 mps 692 mmHg 66%
16:00 +9°C° 0.1 mm 1 mps 691 mmHg 68%
17:00 +7°C° 0 mm 1 mps 691 mmHg 74%
18:00 +5°C° 0 mm 1 mps 691 mmHg 80%
19:00 +3°C° 0 mm 1 mps 690 mmHg 87%
20:00 +2°C° 0 mm 1 mps 690 mmHg 86%
21:00 +2°C° 0 mm 1 mps 690 mmHg 85%
22:00 +2°C° 0 mm 1 mps 690 mmHg 84%
23:00 +2°C° 0 mm 1 mps 690 mmHg 84%

8 March, Monday

Time Temperature Precipitation Wind Pressure Humidity
00:00 +2°C° 0 mm 1 mps 690 mmHg 84%
01:00 +2°C° 0 mm 1 mps 690 mmHg 83%
02:00 +2°C° 0 mm 1 mps 689 mmHg 85%
03:00 +1°C° 0 mm 1 mps 689 mmHg 87%
04:00 +1°C° 0 mm 1 mps 689 mmHg 89%
05:00 +1°C° 0.2 mm 1 mps 689 mmHg 90%
06:00 +1°C° 0.2 mm 1 mps 689 mmHg 90%
07:00 +1°C° 0.2 mm 1 mps 688 mmHg 91%
08:00 +1°C° 0.3 mm 0 mps 688 mmHg 91%
09:00 +2°C° 0.3 mm 0 mps 688 mmHg 91%
10:00 +3°C° 0.3 mm 0 mps 688 mmHg 91%
11:00 +3°C° 0.2 mm 0 mps 688 mmHg 91%
12:00 +4°C° 0.2 mm 1 mps 688 mmHg 92%
13:00 +4°C° 0.2 mm 1 mps 688 mmHg 92%
14:00 +4°C° 0.2 mm 1 mps 687 mmHg 91%
15:00 +4°C° 0.2 mm 1 mps 687 mmHg 90%
16:00 +5°C° 0.2 mm 1 mps 687 mmHg 89%
17:00 +3°C° 0.2 mm 0 mps 687 mmHg 92%
18:00 +2°C° 0.2 mm 0 mps 687 mmHg 94%
19:00 +1°C° 0.2 mm 0 mps 687 mmHg 97%
20:00 +1°C° 0.1 mm 0 mps 687 mmHg 97%
21:00 +1°C° 0.1 mm 0 mps 687 mmHg 97%
22:00 +1°C° 0.1 mm 0 mps 688 mmHg 97%
23:00 +1°C° 0.1 mm 0 mps 687 mmHg 97%
Show more